DW7322 Weather Reports


Display with metric or nautical units.
time (UTC)temp
F
wind
direction
speed
MPH
gust
MPH
rain 1hr
in
rain 24hr
in
rain mn
in
humidity
%
barometer
mb
20260510023021 54 314 0.0 0.0 0.00 0.00 0.00 57 1010.1
20260510021539 56 314 0.0 0.0 0.00 0.00 0.00 52 1009.7
20260510020101 57 314 0.0 1.0 0.00 0.00 0.00 50 1009.2
20260510014559 58 314 0.0 1.0 0.00 0.00 0.00 52 1008.9
20260510013013 59 314 0.0 1.0 0.00 0.00 0.00 48 1008.5
20260510011525 61 314 0.0 0.0 0.00 0.00 0.00 48 1008.2
20260510010041 62 315 0.0 1.0 0.00 0.00 0.00 46 1007.8
20260510004533 64 322 0.0 3.0 0.00 0.00 0.00 41 1007.6
20260510003052 65 323 0.0 3.0 0.00 0.00 0.00 40 1007.2
20260510001509 66 301 0.0 4.0 0.00 0.00 0.00 40 1006.8
20260510000001 67 310 2.0 4.0 0.00 0.00 0.00 38 1006.5
20260509234524 68 297 0.0 4.0 0.00 0.00 0.00 40 1006.3
20260509233037 69 311 2.0 5.0 0.00 0.00 0.00 35 1006.1
20260509231505 70 309 1.0 6.0 0.00 0.00 0.00 37 1005.8
20260509230117 71 307 3.0 8.0 0.00 0.00 0.00 32 1005.6
20260509224513 72 297 3.0 7.0 0.00 0.00 0.00 33 1005.5
20260509223042 72 279 2.0 6.0 0.00 0.00 0.00 31 1005.4
20260509221508 73 340 2.0 6.0 0.00 0.00 0.00 33 1005.1
20260509220127 73 319 0.0 7.0 0.00 0.00 0.00 37 1005.1
20260509214526 73 347 3.0 6.0 0.00 0.00 0.00 35 1004.9
20260509213041 73 293 4.0 7.0 0.00 0.00 0.00 32 1004.9
20260509211511 73 328 3.0 8.0 0.00 0.00 0.00 33 1004.4
20260509210120 74 306 3.0 10.0 0.00 0.00 0.00 34 1004.5
20260509204521 73 293 5.0 10.0 0.00 0.00 0.00 31 1004.4
20260509203043 73 307 2.0 10.0 0.00 0.00 0.00 35 1004.3
20260509201511 74 292 4.0 7.0 0.00 0.00 0.00 34 1004.3
20260509200003 73 288 3.0 12.0 0.00 0.00 0.00 33 1004.3
20260509194525 73 306 2.0 7.0 0.00 0.00 0.00 35 1004.3
20260509193044 72 309 4.0 9.0 0.00 0.00 0.00 34 1004.4
20260509191505 70 296 2.0 8.0 0.00 0.00 0.00 36 1004.6
20260509190035 71 314 2.0 10.0 0.00 0.00 0.00 38 1004.5
20260509184522 72 302 2.0 7.0 0.00 0.00 0.00 34 1004.4
20260509183036 72 303 0.0 4.0 0.00 0.00 0.00 35 1004.3
20260509181555 72 283 2.0 4.0 0.00 0.00 0.00 36 1004.2
20260509180116 71 286 2.0 8.0 0.00 0.00 0.00 35 1004.5
20260509174517 72 316 1.0 4.0 0.00 0.00 0.00 36 1004.5
20260509173041 71 294 1.0 7.0 0.00 0.00 0.00 38 1004.6
20260509171508 71 301 3.0 6.0 0.00 0.00 0.00 35 1004.6
20260509170002 72 306 1.0 5.0 0.00 0.00 0.00 38 1004.6
20260509164513 72 232 1.0 5.0 0.00 0.00 0.00 40 1004.6
20260509163037 71 312 1.0 5.0 0.00 0.00 0.00 43 1004.8
20260509161557 71 306 1.0 4.0 0.00 0.00 0.00 46 1004.7
20260509160108 70 306 0.0 4.0 0.00 0.00 0.00 43 1004.4
20260509154504 70 10 0.0 4.0 0.00 0.00 0.00 43 1004.4
20260509153021 68 297 0.0 3.0 0.00 0.00 0.00 54 1004.6
20260509151538 68 307 0.0 2.0 0.00 0.00 0.00 59 1004.6
20260509150052 66 299 0.0 2.0 0.00 0.00 0.00 63 1004.5
20260509144544 65 305 0.0 2.0 0.00 0.00 0.00 65 1004.6
20260509143059 64 311 0.0 2.0 0.00 0.00 0.00 68 1004.6
20260509141520 63 276 0.0 1.0 0.00 0.00 0.00 75 1004.6
20260509140007 62 274 0.0 2.0 0.00 0.00 0.00 80 1004.6
20260509134517 60 233 0.0 1.0 0.00 0.00 0.00 84 1004.6
20260509133033 58 224 0.0 2.0 0.00 0.00 0.00 87 1004.4
20260509131551 56 226 0.0 1.0 0.00 0.00 0.00 90 1004.4
20260509130107 55 243 0.0 1.0 0.00 0.00 0.00 93 1004.4
20260509124501 53 243 0.0 1.0 0.00 0.00 0.00 95 1004.5
20260509123023 52 243 0.0 1.0 0.00 0.00 0.00 96 1004.5
20260509121549 51 243 0.0 1.0 0.00 0.00 0.00 96 1004.5
20260509120108 50 243 0.0 1.0 0.00 0.00 0.00 96 1004.5
20260509114521 50 243 0.0 1.0 0.00 0.00 0.00 96 1004.5
20260509113042 49 243 0.0 1.0 0.00 0.00 0.00 95 1004.3
20260509111505 49 244 0.0 1.0 0.00 0.00 0.00 95 1004.0
20260509110110 50 243 0.0 1.0 0.00 0.00 0.00 95 1004.0
20260509104509 50 243 0.0 1.0 0.00 0.00 0.00 95 1004.1
20260509103025 50 238 0.0 1.0 0.00 0.00 0.00 95 1004.1
20260509101554 50 224 0.0 1.0 0.00 0.00 0.00 95 1003.9
20260509100107 50 224 0.0 2.0 0.00 0.00 0.00 95 1003.9
20260509094512 50 224 0.0 1.0 0.00 0.00 0.00 95 1003.9
20260509093027 50 215 0.0 1.0 0.00 0.00 0.00 95 1004.1
20260509091553 50 222 0.0 2.0 0.00 0.00 0.00 95 1004.2
20260509090109 49 222 0.0 1.0 0.00 0.00 0.00 94 1004.4
20260509084516 50 217 0.0 1.0 0.00 0.00 0.00 94 1004.7
20260509083037 50 229 0.0 1.0 0.00 0.00 0.00 94 1004.6
20260509081553 50 231 0.0 2.0 0.00 0.00 0.00 94 1004.6
20260509080108 50 222 0.0 2.0 0.00 0.00 0.00 94 1004.6
20260509074503 49 221 0.0 1.0 0.00 0.00 0.00 93 1004.7
20260509073025 50 222 0.0 1.0 0.00 0.00 0.00 93 1004.7
20260509071538 50 222 0.0 0.0 0.00 0.00 0.00 93 1004.9
20260509070105 50 222 0.0 1.0 0.00 0.00 0.00 93 1004.9
20260509064612 50 222 0.0 1.0 0.00 0.00 0.00 92 1005.3
20260509063021 51 222 0.0 0.0 0.00 0.00 0.00 91 1005.7
20260509061544 52 222 0.0 1.0 0.00 0.00 0.00 91 1005.7
20260509054557 52 222 0.0 1.0 0.00 0.00 0.00 90 1005.9
20260509053021 53 227 0.0 2.0 0.00 0.00 0.00 90 1005.9
20260509051538 53 224 0.0 2.0 0.00 0.00 0.00 89 1006.0
20260509050107 53 227 0.0 2.0 0.00 0.00 0.00 88 1006.1
20260509044549 54 214 0.0 2.0 0.00 0.00 0.00 87 1006.0
20260509043011 54 229 0.0 2.0 0.00 0.00 0.00 85 1006.1
20260509041533 54 224 0.0 2.0 0.00 0.00 0.00 83 1005.9
20260509040059 55 226 0.0 2.0 0.00 0.00 0.00 81 1006.1
20260509034555 56 191 0.0 3.0 0.00 0.00 0.00 79 1006.1
20260509033019 56 220 0.0 2.0 0.00 0.00 0.00 77 1006.2
20260509031539 56 213 0.0 2.0 0.00 0.00 0.00 77 1006.2
20260509030107 57 219 0.0 2.0 0.00 0.00 0.00 75 1006.2
20260509024505 57 238 0.0 1.0 0.00 0.00 0.00 72 1006.3